Location: Beadle
(51.4667°N, 109.0000°W)
Time: 05:06:11
(UTC+00:00)

Envisat - Pass Details

Date: 20 January 2022
Orbit: 764 x 765 km, 98.2° (Epoch: 25 May)

Event Time Altitude Azimuth Distance (km) Brightness Sun altitude
Rises 12:58:52 0° 11° (N) 3,244 6.3 -19.9°
Reaches altitude 10° 13:01:14 10° 6° (N) 2,314 5.5 -19.5°
Maximum altitude 13:06:09 50° 292° (WNW) 974 3.1 -18.8°
Drops below altitude 10° 13:11:01 10° 218° (SW) 2,299 5.2 -18.0°
Sets 13:13:22 0° 213° (SSW) 3,221 6.0 -17.6°
